アトラス彗星

C/2024 S1 ( ATLAS )

English version
Home page
Updated on March 11, 2025

---------------------------------------------------------------------

・ プロフィール

発見日 2024年9月27日
発見光度 15.3等
発見者 Asteroid Terrestrial-Impact Last Alert System (ATLAS) search program

・ 写真集

・ 軌道要素

Epoch 2025 May 5.0 TT = JDT 2460800.5
T 2024 Oct. 28.48318 TT                                 Pike
q   0.0079777            (2000.0)            P               Q
z  +0.0114475      Peri.   69.36604     +0.18303278     -0.97386923
 +/-0.0004104      Node   347.39466     -0.95992016     -0.14750902
e   0.9999087      Incl.  141.96834     +0.21225524     +0.17268413
From 310 observations 2024 Sept. 27-Oct. 23, mean residual 0".9.

・ 星図

・ 光度変化

        m1 = 12.0 + 5 logΔ +  8.0 log r           [ ,0]  (              〜2024年10月28日)
        m1 = 23   + 5 logΔ + 15   log r(t + 0.5)  [0, ]  (2024年10月28日〜              )

        ※ 灰色の曲線は、m1 = 12.0 + 5 logΔ + 8.0 log r の光度曲線です。

---------------------------------------------------------------------

軌道要素はM.P.E.C. 2025-D44に掲載されたものです。
星図はステラナビゲータ Ver.11 (アストロアーツ) で作成したものです。
光度グラフはComet for Windowsで作成したものです。

---------------------------------------------------------------------

Copyright(C) Seiichi Yoshida (comet@aerith.net). All rights reserved.